Location: ??
(31.9467°N, 34.8903°E)
Time: 18:05:27
(UTC+00:00)

OAO 3 Rocket - Pass Details

Date: 29 October 2020
Orbit: 629 x 682 km, 35.0° (Epoch: 30 November)

Event Time Altitude Azimuth Distance (km) Brightness Sun altitude
Rises 15:12:10 0° 286° (WNW) 2,993 7.8 -4.7°
Reaches altitude 10° 15:14:34 10° 285° (WNW) 2,071 6.9 -5.2°
Maximum altitude 15:19:24 83° 198° (SSW) 659 3.3 -6.2°
Drops below altitude 10° 15:24:09 10° 111° (ESE) 2,032 5.2 -7.2°
Enters shadow 15:25:19 - 111° (ESE) 2,483 5.6 -7.5°
